Regional Weather Roundup
Issued by NWS Goodland, KS

Home | Current Version | Previous Version | Graphics & Text | Print | Product List | Glossary On
Versions: 1 2 3 4 5 6 7 8 9 10 11 12 13 14 15 16 17 18 19 20 21 22 23 24 25 26 27 28 29 30 31 32 33 34 35 36 37 38 39 40 41 42 43 44 45 46 47 48 49 50
000
ASUS43 KGLD 100408
RWRGLD

GOODLAND FORECAST AREA HOURLY WEATHER ROUNDUP
NATIONAL WEATHER SERVICE GOODLAND KS
900 PM MST TUE FEB 09 2016

...OFFICIAL OBSERVATIONS...

CITY           SKY/WX    TMP DP  RH WIND       PRES   REMARKS
GOODLAND KS    PTCLDY    39  29  67 W17       30.21S
HILL CITY KS   CLOUDY    32  25  75 S3        30.22S
IMPERIAL NEB   CLEAR     37  29  72 W13       30.15F
MCCOOK NEB     CLOUDY    34  27  75 S5        30.17F
AKRON CO       CLEAR     39  27  62 W18       30.21F
BURLINGTON CO  CLEAR     33  25  72 W9        30.23F
LIMON CO       CLOUDY    31  21  66 W13       30.29S
$$

...UNOFFICIAL OBSERVATIONS...

CITY           SKY/WX    TMP DP  RH WIND       PRES   REMARKS
COLBY KS       CLEAR     34  32  93 W10       30.20S
GOVE KS          N/A     30  32 100 MISG        N/A
LENORA KS        N/A     33  32  96 MISG        N/A
NORTON KS      CLOUDY    34  25  69 SW9       30.18
SHARON SPRINGS   N/A     37  30  77 W12         N/A
KIT CARSON CO    N/A     33  27  77 MISG        N/A
YUMA CO          N/A     38  30  73 W12         N/A
$$



USA.gov is the U.S. government's official web portal to all federal, state and local government web resources and services.